www.pogodaiklimat.ru

Погода и климат >> Архив погоды >> Россия >> Калининградская область >> Рыбачий


ПОГОДА в Рыбачем

  • Прогноз погоды в Рыбачем
  • Монитор погоды в Рыбачем

АРХИВ ПОГОДЫ в Рыбачем

Время (UTC), дата Ветер
(напр.,м/с)
 
Видим.   Явления Облачность Т
(С)
Тd
(С)
f
(%)
Тe
(С)
Тes
(С)
Комфортность P
(гПа)
Po
(гПа)
Тmin
(С)
Tmax
(С)
R
(мм)
R24
(мм)
S
(см)
15 14.05 СЗ 6-9
{12}
н/о н/о +8.7 +5.2 79 +5 +5 1028.1 1027.6
18 14.05 СЗ 5-9
{10}
н/о н/о +8.7 +6.2 84 +5 +5 1027.6 1027.1 +9.8
21 14.05 С 4-6
{9}
н/о н/о +9.7 +5.9 77 +7 +7 1027.8 1027.3
00 15.05 С 5-9
{10}
н/о н/о +9.4 +3.9 68 +6 +6 1026.9 1026.4
03 15.05 С 4-8
{9}
н/о н/о +9.1 +4.5 73 +6 +6 1026.1 1025.6 +8.5
06 15.05 С 6-9
{9}
н/о н/о +9.4 +4.8 73 +6 +6 1025.5 1025.0 +8.5
09 15.05 С 5-8
{10}
н/о н/о +11.9 +4.7 61 +10 +10 1024.6 1024.1
12 15.05 СЗ 5-10
{10}
н/о н/о +12.1 +7.3 72 +10 +10 1023.4 1022.9
15 15.05 СЗ 2-4
{10}
н/о н/о +14.5 +9.4 71 +14 +14 1022.2 1021.7
18 15.05 С 3-6
{6}
н/о н/о +14.1 +10.8 81 +13 +13 1021.7 1021.2 +15.2
21 15.05 С 4-7
{9}
н/о н/о +13.4 +7.9 69 +12 +12 1022.1 1021.6
00 16.05 С 4-8
{9}
н/о н/о +12.6 +7.6 72 +11 +11 1020.8 1020.3
03 16.05 СВ 5-9
{10}
н/о н/о +12.2 +7.1 71 +10 +10 1020.2 1019.7 +12.2
06 16.05 СВ 5-9
{9}
н/о н/о +12.5 +8.0 74 +10 +10 1020.2 1019.7 +12.1
09 16.05 С 5-8
{9}
н/о н/о +14.6 +10.6 77 +13 +13 1019.8 1019.3
12 16.05 СВ 4-8
{9}
н/о н/о +15.4 +10.9 75 +14 +14 1019.3 1018.8
15 16.05 В 4-7
{9}
н/о н/о +15.7 +11.4 76 +15 +15 1018.8 1018.3
18 16.05 СВ 3-7
{9}
н/о н/о +14.5 +12.0 85 +14 +14 1018.8 1018.3 +16.7
21 16.05 СВ 3-5
{7}
н/о н/о +14.6 +11.4 81 +14 +14 1018.7 1018.2
00 17.05 СВ 2-5
{6}
н/о н/о +14.0 +11.7 86 +13 +13 1017.6 1017.1
03 17.05 СВ 4-8
{8}
н/о н/о +13.2 +11.6 90 +11 +11 1016.4 1015.9 +13.3
06 17.05 СВ 5-10
{12}
н/о н/о +12.3 +11.5 95 +10 +10 1015.9 1015.4 +12.3
09 17.05 СВ 3-8
{11}
н/о н/о +11.6 +11.1 97 +10 +10 1015.6 1015.1
12 17.05 В 3-4
{9}
н/о н/о +14.6 +13.3 92 +14 +14 1015.2 1014.7
15 17.05 В 2-3
{5}
н/о н/о +15.5 +14.2 92 +15 +15 1014.5 1014.1
18 17.05 В 2-4
{5}
н/о н/о +15.6 +14.0 90 +15 +15 1014.2 1013.7 +16.6
21 17.05 В 2-4
{4}
н/о н/о +14.4 +13.7 96 +14 +14 1014.7 1014.2
00 18.05 В 2-4
{5}
н/о н/о +13.7 +13.3 97 +13 +13 1014.8 1014.3
03 18.05 С 1-2
{5}
н/о н/о +12.8 +12.8 100 +13 +13 1014.8 1014.3 +12.8
06 18.05 СВ 2-3
{4}
н/о н/о +15.1 +13.9 93 +15 +15 1014.3 1013.9 +12.8
09 18.05 В 4-8
{8}
н/о н/о +15.6 +15.1 97 +15 +15 1014.7 1014.2
12 18.05 В 2-4
{8}
н/о н/о +15.5 +15.5 100 +15 +15 1014.0 1013.6
18 18.05 СВ 2-5
{6}
н/о н/о +15.6 +15.3 98 +15 +15 1011.7 1011.2 +17.4
21 18.05 В 1-2
{6}
н/о н/о +15.2 +14.0 93 +16 +16 1011.3 1010.8
00 19.05 СВ 2-3
{9}
н/о н/о +15.7 +15.6 99 +16 +16 1010.9 1010.4
03 19.05 штиль 0
{4}
н/о н/о +14.5 +14.5 100 +14 +14 1011.4 1010.9 +14.4 0.3
06 19.05 СВ 1-3
{3}
н/о н/о +15.4 +15.4 100 +16 +16 1011.6 1011.1 +14.4 0.3
09 19.05 СВ 3-4
{5}
н/о н/о +17.9 +16.2 90 +18 +18 1011.2 1010.7
12 19.05 СВ 2-4
{5}
н/о н/о +21.2 +17.4 79 +25 +25 комфорт 1010.9 1010.4
15 19.05 СВ 2-4
{5}
н/о н/о +20.5 +14.6 69 +24 +24 комфорт 1009.6 1009.2
18 19.05 ЮВ 3-6
{7}
н/о н/о +18.4 +14.6 79 +19 +19 1009.6 1009.1 +21.7
21 19.05 В 2-3
{7}
н/о н/о +15.9 +13.9 88 +16 +16 1009.9 1009.4
00 20.05 В 2-4
{4}
н/о н/о +15.2 +13.9 92 +15 +15 1009.9 1009.4
03 20.05 В 1-3
{5}
н/о н/о +14.8 +14.1 96 +15 +15 1009.8 1009.3 +14.8
06 20.05 В 2-4
{5}
н/о н/о +17.5 +15.4 87 +18 +18 1009.0 1008.5 +14.7
09 20.05 В 3-5
{6}
н/о н/о +19.4 +16.3 82 +22 +22 комфорт 1008.6 1008.1
12 20.05 В 2-4
{5}
н/о н/о +22.1 +17.3 74 +27 +27 душно 1007.5 1007.1
15 20.05 В 2-4
{5}
н/о н/о +21.4 +17.1 76 +25 +25 комфорт 1006.1 1005.6
18 20.05 В 2-4
{5}
н/о н/о +18.9 +16.5 86 +21 +21 комфорт 1006.8 1006.3 +22.4

 

Местоположение метеостанции Рыбачий (Калининградская область, Россия): широта 55.16 долгота 20.84 высота над уровнем моря 3 м.

В архиве по умолчанию представлена погода в Рыбачем за последнюю неделю. Архивные данные за месяц целиком и за предыдущие месяцы, начиная с января 2011 года, Вы можете получить, выбрав интересующий диапазон дат из раскрывающегося списка и нажав кнопку "Ввод!".


*Определитесь, кто Вы:
робот инопланетянин человек

Внимание! Время в таблицах - всемирное. Для получения местного времени необходимо прибавить поправку, которая равна 2 ч.

Смотрите также архив погоды в соседних городах и на ближайших метеорологических станциях:

Погода в Ниде (Литва) (21 км)
Погода в Шилуте (Литва) (44 км)
Погода в Пионерском (Калининградская область, Россия) (46 км)
Погода в Калининграде (Калининградская область, Россия) (53 км)
Погода в Рыбном Порту (Калининградская область, Россия) (57 км)
Погода в Kлайпеде (Литва) (65 км)
Погода в Советске (Калининградская область, Россия) (70 км)
Погода в Балтийске (Калининградская область, Россия) (84 км)
Погода в Черняховске (Калининградская область, Россия) (85 км)
Погода в Железнодорожном (Калининградская область, Россия) (93 км)

Пояснения к столбцам:

Ветер - указаны скорость ветра в м/с - средняя за 10 мин, порывы в срок и между сроками (в фигурных скобках) и направление, откуда дует ветер: С - северный, СВ - северо-восточный, В - восточный, ЮВ - юго-восточный, Ю - южный, ЮЗ - юго-западный, З - западный, СЗ - северо-западный.
Видимость - горизонтальная дальность видимости в метрах или километрах. При видимости от 1 до 10 км при отсутствии осадков обычно наблюдается дымка, при ухудшении видимости до 1 км и менее - туман. В сухую погоду видимость может ухудшаться дымом, пылью или мглою.
Явления - указаны атмосферные явления, наблюдавшиеся в срок или в последний час перед сроком; фигурными скобками обозначены явления, наблюдавшиеся между сроками (за 1-3 часа до срока); квадратными скобками обозначены град или гололедные отложения с указанием их диаметра в мм.
Облачность - указаны через наклонную черту общая и нижняя облачность в баллах и высота нижней границы облаков в метрах; квадратными скобками обозначены формы облаков: Ci - перистые, Cs - перисто-слоистые, Cc - перисто-кучевые, Ac - высококучевые, As - высокослоистые, Sc - слоисто-кучевые, Ns - слоисто-дождевые, Cu - кучевые, Cb - кучево-дождевые. Подробнее классификацию облаков см. в Атласе облаков (PDF).
T - Температура воздуха - температура, измеренная на высоте 2 м над землей.
Td - Температура точки росы - температура, при понижении до которой содержащийся в воздухе водяной пар достигнет насыщения.
f - Относительная влажность воздуха - влажноcть воздуха, измеренная на высоте 2 м над землей.
Te - Эффективная температура - температура, которую ощущает одетый по сезону человек в тени. Характеристика душности погоды. При расчете учитывается влияние влажности воздуха и скорости ветра на теплоощущения человека.
Tes - Эффективная температура на солнце - температура, которую ощущает человек, с поправкой на солнечный нагрев. Характеристика знойности погоды. Зависит от высоты солнца над горизонтом, облачности и скорости ветра. Ночью, в пасмурную погоду, а также при ветре 12 м/с и более поправка равна нулю.
P - Атмосферное давление - приведенное к уровню моря атмосферное давление.
Po - Атмосферное давление - измеренное на уровне метеостанции атмосферное давление.
Tmin - Минимальная температура - минимум температуры воздуха на высоте 2 м над землей.
Tmax - Максимальная температура - максимум температуры воздуха на высоте 2 м над землей.
R - Количество осадков - Количество выпавших осадков за период времени, мм. При наведении курсора мыши на число - период времени, за который выпало указанное количество осадков.
R24 - Количество осадков - Количество выпавших осадков за 24 часа, мм.
S - Снежный покров - Высота снежного покрова, см. При наведении курсора мыши на число - состояние снежного покрова и степень покрытия местности в баллах.